SCP
0 0 0 0 0 0 0 0 0 0 0 0 0 0 -0 -0 0 0 0 0 0 0 0 -0 0 0 0 0 0 -0 -0 0 0 -0 -0 -0 0 0 0 0 0 0 0 0
0 0 0 0 0 0 0 0 0 0 0 0 0 0 -0 -0 0 0 0 0 0 0 0 -0 0 0 0 0 0 0 0 0 0 0 0 0 0 0 0 0 0 0 0 0
0 0 0 0 0 0 0 0 0 0 0 0 0 0 -0 -0 -0 -0 0 -0 0 0 0 0 0 0 0 0 0 0 0 0 0 0 0 0 0 0 0 0 0 0 0 0
0 0 0 0 0 0 0 0 0 0 0 -0 -0 -0 0 -0 -0 -0 -0 0 -0 0 0 0 0 0 0 0 0 0 0 0 0 0 0 0 0 0 0 0 0 0 -0 0
0 0 0 0 0 0 0 0 0 0 0 0 -0 -0 -0 -0 -0 -0 0 -0 0 0 -0 0 0 0 0 0 0 0 0 0 0 0 0 0 0 0 0 0 0 0 0 0
0 0 0 0 0 0 -0 -0 0 0 0 0 -0 0 0 0 -0 -0 -0 0 -0 -0 0 0 0 0 0 0 0 0 0 0 0 0 0 0 0 0 0 0 0 0 0 0
0 0 0 0 0 0 -0 0 0 0 0 -0 -0 -0 -0 -0 -0 -0 -0 -0 0 0 0 0 0 0 0 0 0 0 0 0 0 0 0 0 0 0 0 0 0 0 0 0
0 0 0 0 0 0 -0 0 0 0 0 -0 -0 -0 -0 -0 -0 -0 -0 0 0 0 0 0 0 0 0 0 0 0 0 0 0 0 0 0 0 0 0 0 0 0 0 0
0 0 0 0 0 0 0 -0 -0 0 0 0 -0 -0 -0 0 0 -0 -0 0 0 0 0 0 0 0 0 0 0 0 0 0 0 0 0 0 0 0 0 0 0 0 0 0
0 0 0 0 0 0 0 0 -0 0 -0 0 -0 -0 0 0 -0 0 -0 0 0 0 0 0 0 0 0 0 0 0 0 0 0 0 0 0 0 0 0 0 0 0 0 0
0 0 0 0 -0 -0 0 0 0 0 -0 0 -0 0 0 0 0 0 0 0 0 0 0 0 0 0 0 0 0 0 0 0 0 0 0 0 0 0 0 0 0 0 0 0
0 0 -0 -0 -0 -0 0 0 -0 0 -0 0 -0 -0 0 0 0 0 0 0 0 0 0 0 0 0 0 0 0 0 0 0 0 0 0 0 0 0 0 0 0 0 0 0
-0 -0 -0 -0 -0 -0 0 0 0 -0 -0 0 0 0 -0 -0 0 0 0 0 0 0 0 0 0 0 0 0 0 0 0 0 0 0 0 0 0 0 0 0 0 0 0 0
0 -0 -0 -0 -0 0 0 0 0 -0 -0 -0 0 0 0 -0 0 0 0 0 0 0 0 0 0 0 0 0 0 0 0 0 0 0 0 0 0 0 0 0 0 0 0 0
-0 -0 -0 -0 -0 0 0 0 0 -0 0 -0 0 0 0 -0 0 0 0 0 0 0 0 0 0 0 0 0 0 0 0 0 0 0 0 0 0 0 0 0 0 0 0 0
-0 -0 -0 -0 -0 0 -0 0 0 0 0 0 0 0 0 -0 0 0 0 0 0 0 0 0 0 0 0 0 0 0 0 0 0 0 0 0 0 0 0 0 0 0 0 0
-0 -0 -0 -0 -0 -0 0 0 0 0 0 0 0 0 0 0 0 0 0 0 0 0 0 0 0 0 0 0 0 0 0 0 0 0 0 -0 -0 0 -0 -0 0 0 0 0
-0 -0 0 -0 -0 0 0 0 0 0 0 0 0 0 0 0 0 0 0 0 0 0 0 0 0 0 0 0 0 0 0 0 0 0 0 0 -0 -0 -0 -0 -0 -0 0 0
-0 -0 -0 0 0 0 0 0 0 0 0 0 0 0 0 -0 0 0 0 0 0 0 0 0 0 0 0 0 0 0 0 0 0 0 0 -0 -0 -0 -0 -0 -0 -0 0 0
-0 -0 0 0 0 0 0 0 0 0 0 0 0 0 0 0 0 0 0 -0 0 0 0 0 0 0 0 0 0 0 0 0 0 0 -0 -0 -0 0 -0 -0 -0 -0 0 0
0 0 0 0 0 0 0 0 0 0 0 0 0 0 0 0 0 0 0 0 0 0 0 0 0 0 0 0 0 0 0 0 0 0 0 0 0 0 -0 -0 -0 -0 0 0
0 0 0 0 0 0 0 0 0 0 0 0 0 0 0 0 0 0 0 0 0 0 0 0 0 0 0 0 0 0 0 0 0 0 0 0 0 0 -0 0 0 0 0 0
0 0 0 0 0 0 0 0 -0 -0 0 0 0 0 0 0 0 0 0 0 0 0 0 0 0 0 0 0 0 0 0 0 0 0 0 -0 -0 -0 -0 0 0 0 0 0
0 0 0 0 0 0 0 0 0 0 0 0 -0 0 0 0 0 0 0 0 0 0 0 0 0 0 -0 0 0 -0 0 0 0 -0 -0 -0 -0 -0 -0 -0 0 0 0 0
0 0 0 0 0 0 0 0 0 0 0 -0 0 0 0 0 0 0 0 0 0 0 0 0 0 0 -0 -0 -0 -0 -0 0 0 -0 -0 -0 -0 -0 -0 0 0 0 -0 -0
0 0 0 0 0 0 0 0 0 0 0 0 -0 0 -0 -0 0 0 0 0 0 0 0 0 0 0 -0 -0 -0 -0 0 0 -0 -0 -0 -0 -0 -0 -0 -0 0 0 -0 0
0 0 0 0 0 0 0 0 0 0 0 0 0 0 0 -0 -0 0 0 0 0 0 0 0 0 0 -0 -0 -0 -0 -0 -0 -0 -0 0 0 -0 -0 -0 0 0 0 0 0
Wind_Speed_500mb
54 56 57 53 46 50 33 25 13 11 8 10 15 27 48 55 31 54 36 42 45 39 15 14 11 36 3 26 28 45 39 17 11 36 40 41 41 38 38 11 20 13 8 14
53 57 56 53 43 43 52 25 46 26 24 10 19 26 39 30 28 38 36 45 49 47 45 48 29 39 26 9 2 2 13 27 22 13 13 19 33 23 20 23 16 22 8 7
50 52 56 51 42 37 42 15 11 8 20 32 27 20 31 33 2 30 24 42 19 38 43 42 14 12 9 8 1 35 15 19 32 26 15 15 37 37 37 27 18 21 26 10
50 48 48 44 44 39 33 14 12 13 16 24 31 34 20 35 17 21 18 21 32 35 13 30 39 19 29 20 1 9 7 13 27 24 2 5 43 33 37 27 31 17 27 24
47 46 47 45 44 41 32 18 11 23 42 43 32 35 22 17 10 6 20 18 30 26 18 34 20 25 22 22 33 30 22 5 18 20 29 33 14 7 15 26 35 28 25 18
47 44 44 43 45 44 24 32 37 15 22 25 32 21 21 27 9 7 11 35 16 18 23 10 18 22 13 5 32 28 30 25 9 6 25 26 25 29 34 32 30 23 22 23
54 48 45 44 42 40 46 51 19 11 13 26 23 32 27 28 11 14 19 25 15 12 22 24 9 8 21 8 20 19 21 29 19 10 23 15 4 11 7 19 24 27 26 17
50 52 48 42 41 40 46 43 30 9 9 30 28 29 27 32 4 12 11 15 20 10 20 10 12 5 4 14 15 11 7 22 8 8 16 15 19 15 14 19 23 23 9 4
50 52 50 41 39 39 42 41 28 20 13 7 35 30 25 14 9 2 10 13 14 21 2 4 9 9 15 17 13 8 13 7 10 14 8 11 14 11 4 10 12 7 4 16
51 49 47 47 40 37 39 41 25 20 17 24 25 25 17 21 23 6 6 7 6 12 6 4 2 6 3 14 17 21 18 17 18 8 6 7 16 15 13 23 8 7 21 24
49 43 46 43 43 40 39 43 32 23 12 35 32 18 16 19 18 8 6 5 10 7 4 0 3 3 5 7 12 23 15 15 13 10 12 14 10 11 9 18 19 30 27 24
51 49 49 45 43 41 38 42 19 30 21 23 38 40 27 27 24 22 20 9 12 8 7 8 8 5 3 14 9 14 10 10 9 13 10 16 19 26 31 27 31 30 29 25
55 56 52 49 45 42 36 43 30 23 14 21 16 9 11 11 16 16 10 11 16 11 9 6 4 4 5 4 5 10 8 6 5 14 14 19 27 26 27 32 31 30 27 24
57 53 51 53 43 36 32 38 28 25 12 9 6 11 4 12 17 19 16 22 15 9 11 5 5 3 5 4 4 3 1 14 10 16 22 26 25 27 33 34 32 30 28 25
52 49 45 36 25 23 29 29 29 21 9 6 15 14 10 13 11 13 10 8 7 5 4 1 5 6 5 4 7 7 16 9 8 7 29 9 36 31 26 28 32 28 29 28
44 45 24 22 24 23 22 9 14 13 18 8 6 4 7 3 8 9 8 3 3 5 0 4 6 4 9 1 6 6 8 16 7 6 19 14 45 31 33 34 31 27 28 28
42 40 25 25 22 17 12 7 8 1 16 6 7 2 6 8 7 3 5 7 5 4 3 3 3 2 8 4 7 10 8 24 22 16 37 41 40 38 36 33 31 30 29 27
36 28 24 23 20 17 13 14 9 2 8 8 5 4 2 1 5 3 4 4 5 7 5 2 1 5 8 7 8 14 7 10 27 20 28 36 45 41 36 33 31 30 29 27
30 24 26 13 3 5 5 3 7 0 2 7 6 4 3 5 3 1 1 5 2 4 1 3 5 4 6 2 7 24 11 13 27 25 30 39 43 40 34 30 26 28 27 23
24 13 7 5 2 7 15 8 2 0 2 3 5 8 3 3 6 7 4 4 3 4 5 7 4 8 13 4 4 10 22 10 35 39 41 44 40 34 29 26 25 26 24 21
13 10 7 4 5 2 1 3 4 6 4 5 3 5 1 3 3 3 4 0 4 3 5 4 4 4 3 19 15 9 27 21 20 26 35 34 33 31 30 29 28 26 23 21
13 12 10 3 3 4 4 2 3 6 1 7 3 6 3 5 6 2 3 3 4 2 2 4 4 8 12 22 26 26 33 29 27 31 35 33 30 31 33 33 32 28 24 22
9 7 5 5 3 5 7 11 7 6 9 10 11 4 4 4 5 2 1 4 4 2 5 5 1 8 14 27 23 38 36 32 39 37 35 34 35 35 36 35 30 27 24 20
5 7 6 6 2 7 9 7 7 10 6 16 10 7 4 2 3 1 4 4 4 5 6 3 11 19 29 28 30 37 36 38 41 39 37 39 40 39 35 31 27 24 23 21
5 5 5 4 9 9 8 9 9 13 13 12 7 5 5 2 2 4 4 4 7 6 6 4 18 20 31 31 38 41 40 40 39 38 40 40 40 37 34 28 25 23 23 22
4 4 6 8 7 4 8 7 4 5 7 5 3 3 3 4 3 4 6 4 6 5 6 10 8 24 40 42 38 41 41 40 39 38 39 38 36 34 32 27 24 22 21 20
5 2 12 11 12 10 9 2 7 10 7 1 2 4 2 4 5 7 5 4 6 16 13 1 24 40 40 38 40 40 40 39 39 40 37 35 34 32 29 27 23 22 21 19
Wind_Direction_500mb
340 338 338 337 333 330 347 312 282 223 194 230 216 247 258 312 258 273 237 223 253 268 268 271 277 270 122 356 205 208 209 242 145 211 194 221 212 205 193 204 222 228 187 270
343 340 339 338 334 336 332 300 288 280 212 260 283 296 295 274 299 278 254 256 245 253 255 240 159 262 164 14 42 251 221 218 186 243 144 212 191 227 253 229 236 215 250 162
335 338 341 336 333 329 326 297 291 124 238 271 277 294 308 313 272 269 283 286 297 298 264 253 196 125 354 235 292 39 35 266 222 214 184 241 207 214 204 190 210 240 229 192
330 333 342 335 333 328 322 258 280 300 298 314 303 298 281 298 356 314 310 298 225 243 269 278 258 177 162 197 169 108 74 280 241 250 315 128 250 212 220 206 239 194 236 242
324 330 335 331 329 328 311 284 308 322 303 312 310 294 304 325 333 13 295 215 306 329 249 244 303 185 206 172 190 193 171 232 265 244 207 240 183 187 209 223 237 242 258 275
319 320 325 330 332 329 322 311 291 262 283 295 296 314 329 301 278 196 276 335 311 288 266 130 18 17 250 104 172 187 177 212 199 269 242 218 214 210 206 238 238 248 249 232
325 318 315 320 329 327 321 328 297 296 284 290 291 296 323 337 352 312 324 352 351 167 119 109 172 27 357 164 173 195 185 197 162 206 199 199 102 49 291 266 242 239 221 184
321 324 312 310 319 324 318 319 312 285 277 310 311 335 327 333 42 13 14 352 328 142 146 118 98 67 102 252 188 161 197 197 182 213 206 115 163 164 205 219 230 246 257 124
326 327 319 311 314 322 320 308 320 272 285 277 329 324 336 319 352 45 349 66 345 18 9 172 164 163 182 175 133 265 191 229 199 188 191 212 101 75 3 305 165 35 229 123
324 322 325 319 312 316 318 305 306 284 277 282 349 332 330 323 330 5 94 349 258 261 246 112 151 121 216 153 165 173 183 191 191 148 165 262 129 110 196 224 131 69 95 108
325 323 325 321 313 311 316 303 302 296 269 288 301 319 296 311 322 345 78 208 217 284 295 298 127 102 123 101 128 164 169 163 202 166 191 239 92 186 261 124 148 116 105 102
325 323 321 320 318 304 311 305 290 299 293 272 290 295 272 265 262 302 311 303 343 334 347 2 10 6 189 124 132 164 166 179 186 170 198 100 71 93 115 118 111 114 115 114
322 318 316 316 311 303 299 299 309 293 289 299 298 348 238 259 261 265 285 350 0 6 327 310 351 66 304 183 123 130 149 119 202 130 138 121 112 114 113 116 110 112 116 116
322 320 314 314 305 292 292 294 288 300 272 281 307 312 202 294 268 256 249 270 313 289 319 340 310 357 355 352 73 145 151 173 156 102 112 123 124 119 123 120 118 115 109 107
319 314 316 324 310 302 295 287 280 269 266 294 285 317 278 306 278 264 245 236 273 249 242 13 308 26 319 127 324 195 186 157 166 179 166 116 138 139 140 136 130 120 112 106
319 322 311 320 314 309 316 311 155 213 235 290 308 344 357 15 68 85 93 38 11 293 189 90 38 20 305 189 255 113 147 140 122 86 158 137 141 143 140 130 126 119 116 114
322 333 312 302 303 294 262 261 315 203 226 261 287 72 346 112 96 44 48 45 51 9 337 86 102 128 253 238 204 75 223 144 133 119 123 130 142 145 135 129 124 122 120 118
320 317 319 318 307 304 280 274 282 58 209 269 283 99 106 76 20 64 46 26 35 32 354 246 2 192 224 249 158 122 67 169 156 172 128 140 141 135 135 134 130 129 127 122
322 317 313 320 272 257 311 252 139 185 195 294 281 22 79 111 67 237 133 229 163 135 250 191 262 235 236 330 176 158 178 190 166 131 136 146 138 140 141 137 137 134 132 129
333 343 344 319 244 299 124 155 144 184 220 279 282 22 77 141 227 188 155 203 206 216 171 153 238 255 232 159 101 153 161 172 136 147 143 136 142 145 143 140 142 136 134 130
0 347 347 356 72 72 43 173 208 185 196 221 238 29 92 104 286 86 57 235 277 251 148 231 248 266 117 188 170 181 152 152 140 143 139 145 145 141 133 131 129 129 129 125
338 330 340 31 348 259 256 185 158 230 31 151 178 120 303 151 205 247 217 279 256 304 238 232 235 146 150 157 166 145 144 146 131 136 137 138 134 134 134 131 127 123 121 119
5 355 303 269 221 257 243 183 161 161 151 172 157 147 214 216 233 242 299 268 281 180 230 222 121 140 152 158 151 139 149 147 138 135 131 132 132 132 131 127 124 120 115 117
341 329 297 309 253 0 27 23 12 65 110 117 142 124 82 32 71 70 263 231 275 266 233 139 100 106 118 126 141 139 137 135 133 132 134 134 130 129 127 124 122 118 114 116
317 319 319 334 331 286 312 323 336 90 111 138 152 93 73 118 180 236 290 260 250 226 24 19 80 130 126 125 134 132 132 140 136 138 135 133 132 129 124 122 118 115 115 115
288 289 289 301 270 249 220 221 191 98 145 191 139 170 208 198 225 223 215 246 257 63 41 48 71 127 122 114 123 125 135 134 133 134 136 135 134 131 126 121 115 115 118 115
286 289 293 285 276 282 329 62 139 160 193 6 243 238 341 185 232 205 213 294 28 357 37 36 168 139 141 143 145 146 141 142 141 140 139 136 135 131 128 122 119 120 121 117
Wind_Speed_850mb
54 56 57 53 46 50 33 25 13 11 8 10 15 27 48 55 31 54 36 42 45 39 15 14 11 36 3 26 28 45 39 17 11 36 40 41 41 38 38 11 20 13 8 14
53 57 56 53 43 43 52 25 46 26 24 10 19 26 39 30 28 38 36 45 49 47 45 48 29 39 26 9 2 2 13 27 22 13 13 19 33 23 20 23 16 22 8 7
50 52 56 51 42 37 42 15 11 8 20 32 27 20 31 33 2 30 24 42 19 38 43 42 14 12 9 8 1 35 15 19 32 26 15 15 37 37 37 27 18 21 26 10
50 48 48 44 44 39 33 14 12 13 16 24 31 34 20 35 17 21 18 21 32 35 13 30 39 19 29 20 1 9 7 13 27 24 2 5 43 33 37 27 31 17 27 24
47 46 47 45 44 41 32 18 11 23 42 43 32 35 22 17 10 6 20 18 30 26 18 34 20 25 22 22 33 30 22 5 18 20 29 33 14 7 15 26 35 28 25 18
47 44 44 43 45 44 24 32 37 15 22 25 32 21 21 27 9 7 11 35 16 18 23 10 18 22 13 5 32 28 30 25 9 6 25 26 25 29 34 32 30 23 22 23
54 48 45 44 42 40 46 51 19 11 13 26 23 32 27 28 11 14 19 25 15 12 22 24 9 8 21 8 20 19 21 29 19 10 23 15 4 11 7 19 24 27 26 17
50 52 48 42 41 40 46 43 30 9 9 30 28 29 27 32 4 12 11 15 20 10 20 10 12 5 4 14 15 11 7 22 8 8 16 15 19 15 14 19 23 23 9 4
50 52 50 41 39 39 42 41 28 20 13 7 35 30 25 14 9 2 10 13 14 21 2 4 9 9 15 17 13 8 13 7 10 14 8 11 14 11 4 10 12 7 4 16
51 49 47 47 40 37 39 41 25 20 17 24 25 25 17 21 23 6 6 7 6 12 6 4 2 6 3 14 17 21 18 17 18 8 6 7 16 15 13 23 8 7 21 24
49 43 46 43 43 40 39 43 32 23 12 35 32 18 16 19 18 8 6 5 10 7 4 0 3 3 5 7 12 23 15 15 13 10 12 14 10 11 9 18 19 30 27 24
51 49 49 45 43 41 38 42 19 30 21 23 38 40 27 27 24 22 20 9 12 8 7 8 8 5 3 14 9 14 10 10 9 13 10 16 19 26 31 27 31 30 29 25
55 56 52 49 45 42 36 43 30 23 14 21 16 9 11 11 16 16 10 11 16 11 9 6 4 4 5 4 5 10 8 6 5 14 14 19 27 26 27 32 31 30 27 24
57 53 51 53 43 36 32 38 28 25 12 9 6 11 4 12 17 19 16 22 15 9 11 5 5 3 5 4 4 3 1 14 10 16 22 26 25 27 33 34 32 30 28 25
52 49 45 36 25 23 29 29 29 21 9 6 15 14 10 13 11 13 10 8 7 5 4 1 5 6 5 4 7 7 16 9 8 7 29 9 36 31 26 28 32 28 29 28
44 45 24 22 24 23 22 9 14 13 18 8 6 4 7 3 8 9 8 3 3 5 0 4 6 4 9 1 6 6 8 16 7 6 19 14 45 31 33 34 31 27 28 28
42 40 25 25 22 17 12 7 8 1 16 6 7 2 6 8 7 3 5 7 5 4 3 3 3 2 8 4 7 10 8 24 22 16 37 41 40 38 36 33 31 30 29 27
36 28 24 23 20 17 13 14 9 2 8 8 5 4 2 1 5 3 4 4 5 7 5 2 1 5 8 7 8 14 7 10 27 20 28 36 45 41 36 33 31 30 29 27
30 24 26 13 3 5 5 3 7 0 2 7 6 4 3 5 3 1 1 5 2 4 1 3 5 4 6 2 7 24 11 13 27 25 30 39 43 40 34 30 26 28 27 23
24 13 7 5 2 7 15 8 2 0 2 3 5 8 3 3 6 7 4 4 3 4 5 7 4 8 13 4 4 10 22 10 35 39 41 44 40 34 29 26 25 26 24 21
13 10 7 4 5 2 1 3 4 6 4 5 3 5 1 3 3 3 4 0 4 3 5 4 4 4 3 19 15 9 27 21 20 26 35 34 33 31 30 29 28 26 23 21
13 12 10 3 3 4 4 2 3 6 1 7 3 6 3 5 6 2 3 3 4 2 2 4 4 8 12 22 26 26 33 29 27 31 35 33 30 31 33 33 32 28 24 22
9 7 5 5 3 5 7 11 7 6 9 10 11 4 4 4 5 2 1 4 4 2 5 5 1 8 14 27 23 38 36 32 39 37 35 34 35 35 36 35 30 27 24 20
5 7 6 6 2 7 9 7 7 10 6 16 10 7 4 2 3 1 4 4 4 5 6 3 11 19 29 28 30 37 36 38 41 39 37 39 40 39 35 31 27 24 23 21
5 5 5 4 9 9 8 9 9 13 13 12 7 5 5 2 2 4 4 4 7 6 6 4 18 20 31 31 38 41 40 40 39 38 40 40 40 37 34 28 25 23 23 22
4 4 6 8 7 4 8 7 4 5 7 5 3 3 3 4 3 4 6 4 6 5 6 10 8 24 40 42 38 41 41 40 39 38 39 38 36 34 32 27 24 22 21 20
5 2 12 11 12 10 9 2 7 10 7 1 2 4 2 4 5 7 5 4 6 16 13 1 24 40 40 38 40 40 40 39 39 40 37 35 34 32 29 27 23 22 21 19
Wind_Direction_850mb
340 338 338 337 333 330 347 312 282 223 194 230 216 247 258 312 258 273 237 223 253 268 268 271 277 270 122 356 205 208 209 242 145 211 194 221 212 205 193 204 222 228 187 270
343 340 339 338 334 336 332 300 288 280 212 260 283 296 295 274 299 278 254 256 245 253 255 240 159 262 164 14 42 251 221 218 186 243 144 212 191 227 253 229 236 215 250 162
335 338 341 336 333 329 326 297 291 124 238 271 277 294 308 313 272 269 283 286 297 298 264 253 196 125 354 235 292 39 35 266 222 214 184 241 207 214 204 190 210 240 229 192
330 333 342 335 333 328 322 258 280 300 298 314 303 298 281 298 356 314 310 298 225 243 269 278 258 177 162 197 169 108 74 280 241 250 315 128 250 212 220 206 239 194 236 242
324 330 335 331 329 328 311 284 308 322 303 312 310 294 304 325 333 13 295 215 306 329 249 244 303 185 206 172 190 193 171 232 265 244 207 240 183 187 209 223 237 242 258 275
319 320 325 330 332 329 322 311 291 262 283 295 296 314 329 301 278 196 276 335 311 288 266 130 18 17 250 104 172 187 177 212 199 269 242 218 214 210 206 238 238 248 249 232
325 318 315 320 329 327 321 328 297 296 284 290 291 296 323 337 352 312 324 352 351 167 119 109 172 27 357 164 173 195 185 197 162 206 199 199 102 49 291 266 242 239 221 184
321 324 312 310 319 324 318 319 312 285 277 310 311 335 327 333 42 13 14 352 328 142 146 118 98 67 102 252 188 161 197 197 182 213 206 115 163 164 205 219 230 246 257 124
326 327 319 311 314 322 320 308 320 272 285 277 329 324 336 319 352 45 349 66 345 18 9 172 164 163 182 175 133 265 191 229 199 188 191 212 101 75 3 305 165 35 229 123
324 322 325 319 312 316 318 305 306 284 277 282 349 332 330 323 330 5 94 349 258 261 246 112 151 121 216 153 165 173 183 191 191 148 165 262 129 110 196 224 131 69 95 108
325 323 325 321 313 311 316 303 302 296 269 288 301 319 296 311 322 345 78 208 217 284 295 298 127 102 123 101 128 164 169 163 202 166 191 239 92 186 261 124 148 116 105 102
325 323 321 320 318 304 311 305 290 299 293 272 290 295 272 265 262 302 311 303 343 334 347 2 10 6 189 124 132 164 166 179 186 170 198 100 71 93 115 118 111 114 115 114
322 318 316 316 311 303 299 299 309 293 289 299 298 348 238 259 261 265 285 350 0 6 327 310 351 66 304 183 123 130 149 119 202 130 138 121 112 114 113 116 110 112 116 116
322 320 314 314 305 292 292 294 288 300 272 281 307 312 202 294 268 256 249 270 313 289 319 340 310 357 355 352 73 145 151 173 156 102 112 123 124 119 123 120 118 115 109 107
319 314 316 324 310 302 295 287 280 269 266 294 285 317 278 306 278 264 245 236 273 249 242 13 308 26 319 127 324 195 186 157 166 179 166 116 138 139 140 136 130 120 112 106
319 322 311 320 314 309 316 311 155 213 235 290 308 344 357 15 68 85 93 38 11 293 189 90 38 20 305 189 255 113 147 140 122 86 158 137 141 143 140 130 126 119 116 114
322 333 312 302 303 294 262 261 315 203 226 261 287 72 346 112 96 44 48 45 51 9 337 86 102 128 253 238 204 75 223 144 133 119 123 130 142 145 135 129 124 122 120 118
320 317 319 318 307 304 280 274 282 58 209 269 283 99 106 76 20 64 46 26 35 32 354 246 2 192 224 249 158 122 67 169 156 172 128 140 141 135 135 134 130 129 127 122
322 317 313 320 272 257 311 252 139 185 195 294 281 22 79 111 67 237 133 229 163 135 250 191 262 235 236 330 176 158 178 190 166 131 136 146 138 140 141 137 137 134 132 129
333 343 344 319 244 299 124 155 144 184 220 279 282 22 77 141 227 188 155 203 206 216 171 153 238 255 232 159 101 153 161 172 136 147 143 136 142 145 143 140 142 136 134 130
0 347 347 356 72 72 43 173 208 185 196 221 238 29 92 104 286 86 57 235 277 251 148 231 248 266 117 188 170 181 152 152 140 143 139 145 145 141 133 131 129 129 129 125
338 330 340 31 348 259 256 185 158 230 31 151 178 120 303 151 205 247 217 279 256 304 238 232 235 146 150 157 166 145 144 146 131 136 137 138 134 134 134 131 127 123 121 119
5 355 303 269 221 257 243 183 161 161 151 172 157 147 214 216 233 242 299 268 281 180 230 222 121 140 152 158 151 139 149 147 138 135 131 132 132 132 131 127 124 120 115 117
341 329 297 309 253 0 27 23 12 65 110 117 142 124 82 32 71 70 263 231 275 266 233 139 100 106 118 126 141 139 137 135 133 132 134 134 130 129 127 124 122 118 114 116
317 319 319 334 331 286 312 323 336 90 111 138 152 93 73 118 180 236 290 260 250 226 24 19 80 130 126 125 134 132 132 140 136 138 135 133 132 129 124 122 118 115 115 115
288 289 289 301 270 249 220 221 191 98 145 191 139 170 208 198 225 223 215 246 257 63 41 48 71 127 122 114 123 125 135 134 133 134 136 135 134 131 126 121 115 115 118 115
286 289 293 285 276 282 329 62 139 160 193 6 243 238 341 185 232 205 213 294 28 357 37 36 168 139 141 143 145 146 141 142 141 140 139 136 135 131 128 122 119 120 121 117